Location: Chuathbaluk
(61.5726°N, 159.2454°W)
Time: 12:59:43
(UTC+00:00)

NUDT-PHONESAT - Pass Details

Date: 24 January 2021
Orbit: 480 x 498 km, 97.4° (Epoch: 01 March)

Event Time Altitude Azimuth Distance (km) Brightness Sun altitude
Rises 03:59:19 0° 162° (SSE) 2,576 ? -11.1°
Reaches altitude 10° 04:01:23 10° 163° (SSE) 1,700 ? -11.3°
Maximum altitude 04:05:03 88° 257° (WSW) 508 ? -11.7°
Drops below altitude 10° 04:08:46 10° 343° (NNW) 1,721 ? -12.1°
Sets 04:10:52 0° 344° (NNW) 2,611 ? -12.4°
